Temperature
14 14 15 15 13 12 13 14 15 16 17 19 19 19 18 18 18 18 18 18 18 18 18 17 17 17 17 17 17 17 17 17 16 16 16 16 16 16 16 16 16 16 16 16 16 16 16 15 15
13 14 14 14 12 12 13 14 15 16 17 19 19 19 17 17 18 18 18 18 18 18 17 17 17 17 17 17 17 17 17 16 16 16 16 16 16 16 16 16 16 15 15 15 15 15 15 15 15
13 14 14 11 12 12 14 14 15 16 18 18 18 18 17 17 17 17 17 17 17 17 17 17 17 17 17 16 16 16 16 16 16 16 16 16 16 16 16 16 16 15 15 15 15 15 15 15 15
13 13 13 11 12 13 14 14 15 15 17 17 17 16 17 16 17 17 17 17 17 17 17 16 16 16 16 16 16 16 16 16 16 15 15 15 15 15 16 15 15 15 15 15 15 15 15 15 15
13 13 11 11 12 13 13 14 15 15 15 16 16 15 15 16 16 17 17 17 17 17 16 16 16 16 16 16 16 16 16 15 15 15 15 15 15 15 15 15 15 15 15 15 15 15 15 15 15
12 10 10 11 12 13 13 15 15 14 14 15 15 14 15 15 16 16 16 16 16 16 16 15 15 15 15 15 15 15 15 15 15 15 15 15 15 15 15 15 15 15 15 15 15 15 15 15 14
11 9 10 11 11 12 13 14 14 13 13 14 15 13 14 14 15 15 15 15 15 15 15 15 15 15 15 15 15 15 15 15 15 15 15 15 15 15 15 15 15 15 15 15 14 14 14 14 14
11 9 10 10 11 12 13 14 14 14 14 15 15 13 13 14 14 14 14 14 14 15 14 14 14 14 14 14 14 14 15 15 15 15 14 14 15 15 15 15 14 14 14 14 14 14 14 14 14
11 8 9 10 11 11 12 12 13 14 14 14 14 14 14 13 13 14 14 14 14 14 14 14 14 14 14 14 14 14 14 14 14 14 14 14 14 14 14 14 14 14 14 14 14 14 14 14 14
10 8 9 10 11 11 11 11 12 12 12 12 13 13 13 13 13 13 13 13 13 13 13 14 14 14 13 13 13 14 14 14 14 14 14 14 14 14 14 14 14 14 14 14 14 14 14 14 14
9 8 9 10 11 11 11 11 11 11 10 12 12 12 12 12 12 12 12 12 12 13 13 13 13 13 13 13 13 13 13 13 13 14 14 14 14 14 14 13 13 13 13 13 14 14 14 14 13
8 8 9 9 10 10 10 10 10 11 11 12 12 12 12 11 12 12 12 12 12 12 12 12 13 13 13 13 13 13 13 13 13 13 13 13 13 13 13 13 13 13 13 13 13 13 13 13 13
8 8 9 9 9 9 10 10 10 10 11 11 11 11 11 11 11 11 12 12 11 12 12 12 12 12 12 12 12 12 13 13 13 13 13 13 13 13 13 13 13 13 13 13 13 13 13 13 13
8 8 8 8 9 9 9 9 9 9 10 10 10 10 11 11 11 11 11 11 11 11 12 12 12 12 12 12 12 12 12 12 13 13 13 13 13 13 13 13 13 13 13 13 13 13 12 12 12
8 7 7 8 8 8 8 8 8 9 10 9 9 10 10 10 10 10 11 11 11 11 11 11 11 11 12 12 12 12 12 12 12 12 12 12 12 12 13 13 12 12 12 12 12 12 12 12 12
7 6 6 7 7 8 8 7 8 9 9 8 9 9 9 9 10 10 10 11 11 11 11 11 11 11 11 11 12 12 12 12 12 12 12 12 12 12 12 12 12 12 12 12 12 12 12 12 12
5 5 5 6 7 7 7 7 7 8 8 8 8 8 9 9 9 9 10 10 10 10 10 10 10 11 10 11 11 11 11 11 11 11 11 11 11 11 12 12 12 12 12 11 11 11 11 11 11
5 5 5 6 6 7 6 6 6 7 7 7 8 8 8 8 8 9 9 9 10 10 10 10 10 10 10 10 10 11 11 11 11 11 11 11 11 11 11 11 11 11 11 11 11 11 11 11 11
6 5 5 6 6 6 6 6 6 6 6 7 7 7 7 8 8 8 8 9 9 9 9 9 9 9 9 10 10 10 10 10 10 10 11 10 10 10 11 11 11 11 11 11 11 10 10 10 10
6 5 5 5 6 6 5 5 6 6 6 6 7 7 7 7 8 8 8 8 9 9 9 9 9 9 9 9 9 9 9 9 10 10 10 10 10 10 10 10 10 10 10 11 10 10 10 10 10
5 5 5 5 5 6 6 5 5 6 6 6 6 7 7 7 7 7 8 8 8 8 8 8 8 8 9 9 9 9 9 9 9 9 10 10 10 10 10 10 10 10 10 10 10 10 10 10 10
5 5 5 5 4 4 5 4 5 5 5 6 6 6 6 7 7 7 7 7 7 8 8 8 8 8 8 8 8 8 8 8 9 9 9 9 9 9 9 9 9 10 10 10 10 10 10 10 9
5 5 5 5 4 3 4 4 4 5 5 5 5 6 6 6 7 7 7 7 7 7 7 7 7 7 7 7 8 8 8 8 8 8 8 9 9 9 9 9 9 9 9 9 9 9 9 9 9
5 4 4 3 3 3 4 3 4 3 4 4 4 5 5 6 6 7 7 7 7 7 7 7 7 7 7 7 7 7 7 8 8 8 8 8 8 8 8 8 9 9 9 9 9 9 9 9 9
4 3 3 3 2 3 4 4 4 4 3 4 4 5 5 5 6 6 6 6 6 6 6 6 6 6 6 6 7 7 7 7 7 7 7 7 8 8 8 8 8 8 8 8 8 8 9 9 9
3 3 3 3 3 3 3 3 3 4 4 4 4 4 5 5 5 5 6 6 6 6 6 6 6 6 6 6 6 6 7 7 7 7 7 7 7 7 7 7 8 8 8 8 8 8 8 8 8
3 2 3 2 2 2 3 3 3 4 3 3 3 3 3 4 4 5 5 5 5 5 5 5 5 5 5 5 6 6 6 6 6 6 6 6 7 7 7 7 7 7 7 7 7 7 8 8 8
3 2 1 2 2 3 3 2 3 2 2 2 2 2 3 3 4 4 4 4 4 5 5 5 5 5 5 5 5 5 5 6 6 6 6 6 6 6 6 6 6 7 7 7 7 7 7 7 7
2 2 1 1 1 2 2 3 3 2 2 1 1 2 2 2 3 3 4 4 4 4 4 4 4 4 4 4 5 5 5 5 5 5 5 5 6 6 6 6 6 6 6 6 6 7 7 7 7
2 2 1 1 1 1 1 2 3 2 1 1 1 2 2 2 2 3 3 3 3 3 3 3 4 4 4 4 4 4 4 5 5 5 5 5 5 5 5 5 6 6 6 6 6 6 6 6 6
Wind_Speed
11 9 2 3 3 1 6 6 3 2 2 3 1 2 5 4 4 4 1 5 8 11 13 14 14 15 14 14 13 13 13 13 13 13 13 13 13 12 12 12 12 11 11 11 12 12 12 11 11
8 3 3 3 4 4 6 6 5 5 4 1 1 2 3 1 1 4 3 5 9 11 13 14 14 15 15 14 13 13 13 13 13 13 13 13 12 12 12 12 11 11 11 11 11 12 11 11 11
5 1 2 2 4 9 7 4 7 5 4 1 1 1 2 2 2 3 3 8 9 10 11 13 15 16 15 14 14 13 13 13 13 13 13 12 12 12 12 12 11 11 11 11 11 11 11 12 11
2 3 2 2 9 9 6 3 3 3 3 1 1 1 1 1 2 3 6 10 10 8 10 13 14 16 15 14 14 13 13 13 12 12 12 12 12 12 12 11 11 10 10 10 11 11 11 11 11
3 2 2 4 9 7 5 4 2 2 2 2 1 1 1 4 3 6 8 10 10 8 8 11 13 14 14 14 14 13 13 13 12 12 12 12 12 12 11 11 10 10 10 10 10 10 10 10 10
2 2 4 8 9 5 4 4 2 2 2 1 1 1 2 1 4 5 6 7 9 9 8 10 11 13 13 12 13 13 13 13 12 12 11 12 12 12 11 11 10 10 9 9 9 10 10 10 10
2 3 6 6 6 5 5 4 2 3 3 3 1 2 1 2 2 3 6 6 7 8 7 7 9 10 11 11 12 12 12 12 12 12 11 11 12 12 11 11 10 9 9 9 9 9 10 10 9
3 2 4 5 5 6 4 3 3 3 4 3 1 4 3 3 1 3 6 6 5 6 6 6 7 8 8 9 10 11 12 12 11 11 11 11 12 11 11 10 10 9 9 8 8 8 9 9 9
2 1 6 6 5 5 3 3 5 3 2 3 1 3 4 4 4 5 5 4 3 4 4 5 5 6 6 7 9 10 11 11 11 11 11 11 10 10 9 10 10 9 8 8 8 7 8 8 8
3 4 7 4 3 4 4 4 4 3 3 3 4 3 2 4 5 6 4 3 3 3 4 4 4 5 5 6 6 7 9 10 9 10 10 9 9 9 9 9 9 8 7 7 7 7 7 6 6
2 4 4 4 4 4 5 5 3 2 6 5 4 3 2 2 3 5 5 4 3 4 3 4 4 4 4 4 4 4 6 7 8 9 9 9 8 8 8 7 7 7 7 6 5 5 4 5 5
1 4 3 4 5 4 5 5 4 5 8 6 5 6 5 4 4 4 5 4 3 2 1 2 2 3 3 3 3 4 4 5 6 8 10 9 6 5 6 5 5 6 5 5 4 4 4 4 5
2 3 4 5 5 5 5 6 6 8 7 4 3 4 6 5 5 4 4 4 3 2 1 1 2 3 3 2 2 3 4 5 6 8 9 9 6 6 5 5 5 5 5 5 4 3 3 3 4
2 3 5 6 6 5 6 8 4 8 5 3 2 4 5 6 5 3 3 4 3 3 2 2 2 3 2 2 2 2 2 4 5 6 8 9 8 6 6 5 5 5 6 6 5 4 3 3 3
2 3 5 4 4 3 3 6 5 7 4 2 4 4 4 4 4 5 4 4 5 4 3 2 3 2 2 2 2 2 3 4 4 5 7 8 8 8 6 5 5 5 7 6 5 4 3 2 2
2 2 3 4 2 2 1 8 7 6 3 3 4 4 4 4 4 4 4 3 4 4 4 3 3 3 3 2 2 2 2 3 3 4 6 7 9 9 6 5 5 6 6 6 4 3 2 2 2
2 1 4 6 2 2 2 8 7 6 3 4 4 4 4 4 3 3 3 3 4 5 5 4 3 3 3 2 2 2 2 2 3 4 4 5 7 8 6 5 5 6 5 4 4 3 3 2 2
3 3 4 5 4 4 6 9 8 5 3 5 5 5 5 5 5 4 3 4 2 3 4 4 3 3 3 2 2 2 1 1 2 3 4 5 6 7 6 5 5 6 4 4 4 4 2 2 2
3 4 7 7 5 5 7 10 10 6 4 5 5 5 5 6 5 3 3 3 2 2 3 4 4 4 3 3 2 2 1 1 2 2 4 5 5 6 6 4 4 4 4 5 5 3 3 2 2
4 5 6 7 4 4 6 10 9 5 5 5 5 5 5 5 3 2 2 2 2 2 2 3 4 4 3 2 2 2 2 2 2 2 3 4 5 6 6 5 4 4 4 5 5 5 3 2 2
4 4 4 6 7 3 4 6 6 5 3 4 4 4 4 4 4 3 1 2 1 1 3 3 3 3 3 3 2 2 1 1 0 1 2 3 4 5 5 5 4 4 4 5 6 7 6 5 3
4 3 4 4 3 4 1 4 7 5 5 5 5 4 3 3 3 3 2 2 2 3 2 2 2 2 2 3 3 4 3 2 2 2 2 2 3 4 4 5 5 4 4 5 6 5 5 6 5
4 4 4 3 2 4 2 2 6 3 5 6 6 4 2 3 2 2 2 2 2 1 1 2 2 2 2 3 4 4 3 2 1 1 1 2 2 3 4 5 4 4 4 4 4 4 5 5 6
2 3 3 3 2 3 3 3 5 3 5 6 6 5 3 3 3 1 1 1 1 0 0 1 1 1 2 3 3 4 4 3 3 3 2 2 1 1 2 4 4 4 3 4 4 4 5 4 4
4 4 3 4 2 5 2 2 5 5 5 4 4 4 3 2 2 1 1 1 0 0 0 1 1 1 1 2 3 4 4 4 5 4 4 3 2 2 2 3 3 3 3 4 3 3 4 5 5
1 2 2 2 4 4 2 3 4 4 5 4 3 3 3 3 3 2 1 1 1 1 1 1 2 2 1 2 3 3 3 3 3 3 3 4 3 3 3 3 3 4 4 4 3 3 4 4 5
0 1 2 2 2 3 4 4 5 5 7 8 7 6 5 5 4 4 3 2 1 1 2 2 2 2 2 2 2 2 2 3 3 3 3 3 3 3 3 3 3 4 4 4 3 3 4 4 4
1 2 3 2 1 3 4 3 3 6 7 7 7 7 6 6 5 5 3 2 2 2 2 1 2 2 2 1 1 1 2 2 2 2 3 3 3 3 3 3 3 4 4 4 4 3 4 4 4
1 1 1 1 2 2 3 5 3 3 4 5 6 6 6 5 5 5 4 3 2 3 2 1 1 0 0 1 1 1 1 1 1 1 2 3 2 2 3 3 3 4 4 4 4 4 4 4 4
1 2 3 2 3 2 3 5 4 3 3 4 6 6 6 6 5 4 3 3 3 3 3 2 1 1 1 1 1 1 0 0 1 1 1 2 2 2 3 3 3 4 4 4 5 5 4 5 5
Wind_Direction
321 324 36 65 76 103 232 241 228 239 233 234 235 135 145 154 158 175 177 140 135 147 155 155 153 150 144 140 136 133 131 131 129 126 124 123 121 120 118 119 121 121 119 118 117 114 112 112 109
322 340 58 80 139 204 241 233 227 235 229 261 333 91 98 128 110 120 123 148 138 145 151 154 152 151 146 143 140 137 135 134 134 131 128 126 125 124 123 122 124 124 121 118 118 117 113 112 110
319 21 101 116 182 205 219 222 219 242 263 327 349 18 126 154 143 155 175 146 133 138 147 152 151 153 150 147 144 142 140 138 138 136 133 131 129 127 125 126 124 126 125 122 122 119 114 111 111
40 52 69 166 218 224 216 231 233 246 292 338 104 29 10 54 159 167 141 135 130 136 140 150 151 155 154 151 148 146 144 142 140 139 138 137 135 132 129 126 124 125 127 126 124 121 116 115 113
67 101 168 224 233 236 238 256 256 246 257 296 84 141 324 340 68 108 123 134 137 136 137 148 152 155 155 155 153 150 148 146 144 141 141 140 137 134 132 128 127 124 126 129 126 124 123 119 118
66 110 185 223 232 241 251 259 250 296 283 291 111 162 238 16 75 107 118 132 139 139 137 143 152 153 150 151 154 154 152 150 147 145 144 143 141 137 137 134 130 130 128 133 132 128 127 124 119
141 165 208 223 234 247 260 269 209 252 275 258 172 150 229 358 43 120 114 119 131 134 133 138 141 149 153 153 152 154 155 153 150 147 146 146 144 142 141 137 135 134 133 133 137 134 131 128 123
145 149 221 229 228 242 267 278 257 240 258 268 136 153 210 248 224 103 103 103 119 131 137 138 137 138 145 155 157 155 155 153 152 148 144 143 144 142 139 137 138 137 134 135 139 138 137 132 127
106 179 224 222 222 245 281 277 294 280 260 287 284 212 213 181 127 97 93 94 109 128 144 143 138 136 140 152 161 156 156 153 149 147 143 140 141 140 139 140 141 140 139 138 138 138 138 133 127
122 209 234 234 226 253 286 274 289 310 294 293 321 348 95 131 126 125 127 145 152 158 168 154 147 147 147 154 155 160 160 154 150 151 146 143 141 142 141 142 144 142 139 136 135 137 133 129 122
157 218 249 277 276 281 290 290 285 257 266 254 241 229 167 142 141 145 154 168 178 177 178 168 159 154 155 153 153 156 155 152 149 150 150 146 139 138 136 134 137 135 132 125 125 124 128 129 127
220 263 269 290 308 299 284 289 289 261 261 265 232 186 181 182 186 180 173 172 177 170 169 161 153 151 155 156 160 160 161 158 158 158 155 152 146 145 144 141 142 142 142 135 127 123 130 130 136
254 283 291 308 320 301 293 283 277 279 286 277 257 186 186 191 199 197 175 157 160 167 187 180 172 164 156 152 160 154 172 165 167 164 163 162 158 161 158 151 152 155 152 146 142 137 140 135 137
251 274 293 300 302 297 291 287 277 277 293 283 250 209 201 198 199 198 175 161 170 183 200 190 183 164 162 167 168 151 149 165 167 169 170 166 164 164 161 156 160 162 159 155 151 149 147 148 140
309 313 319 309 301 294 310 289 263 279 300 282 258 235 215 211 200 199 196 184 181 186 192 196 185 162 167 168 163 154 156 154 162 168 169 168 165 165 165 166 170 168 159 150 141 137 128 145 143
6 13 305 293 302 304 271 263 275 288 276 264 273 260 226 224 215 211 202 197 189 181 181 190 184 165 177 172 158 155 162 152 164 166 169 170 169 167 163 169 173 165 155 151 154 156 149 162 162
19 291 272 293 273 309 253 267 287 303 281 264 261 257 239 241 241 224 207 204 203 186 180 186 177 165 174 166 142 137 159 161 167 163 168 174 172 168 161 169 170 162 155 160 171 165 160 164 166
263 267 274 278 287 302 279 276 292 304 296 270 259 252 247 243 247 228 217 208 202 190 174 180 177 162 159 138 125 120 106 157 169 177 173 171 173 171 161 161 167 163 166 173 172 165 155 166 174
256 253 275 278 287 293 273 279 287 294 297 282 271 253 255 253 249 221 207 188 175 182 180 180 178 167 156 154 158 155 193 214 184 200 178 174 174 171 164 164 166 172 183 183 170 163 155 170 161
271 267 273 291 300 289 274 278 282 298 283 274 267 256 248 261 244 232 193 175 171 181 196 185 180 178 171 173 174 161 169 224 204 194 187 173 172 174 173 169 171 174 177 178 175 170 172 188 183
279 249 270 288 315 309 289 294 294 320 308 302 285 262 241 236 220 227 196 191 181 196 202 188 182 186 176 155 130 115 103 89 164 190 199 181 176 175 171 171 170 173 179 186 189 181 181 191 209
274 256 276 292 325 300 327 289 291 312 323 322 308 295 264 265 227 210 181 189 207 214 202 184 177 184 180 163 155 159 172 200 220 206 217 201 181 173 173 172 174 178 184 191 195 191 188 182 194
261 297 287 271 252 302 283 236 291 337 320 308 305 304 294 284 241 208 195 200 218 214 196 195 171 176 189 192 182 180 185 198 191 165 188 208 187 176 176 175 176 185 191 195 193 185 189 190 191
307 350 4 32 65 300 249 201 289 308 293 303 308 311 301 300 297 260 210 175 189 144 125 170 168 183 198 200 199 190 186 182 175 182 192 215 207 196 184 177 179 187 194 196 194 194 193 192 187
36 45 15 355 349 261 277 212 263 294 303 285 287 302 315 305 300 309 355 3 136 210 250 193 180 207 216 206 206 202 195 190 187 194 200 212 208 220 218 204 196 197 198 196 191 190 198 191 182
328 125 155 238 257 290 312 246 262 310 334 349 4 2 356 342 339 333 305 261 246 250 245 214 201 217 231 223 220 206 195 202 205 205 209 219 216 216 215 212 208 201 193 196 195 199 207 194 189
102 199 183 164 283 286 274 285 300 343 356 4 10 12 359 341 346 347 349 356 339 280 268 228 215 220 226 231 231 208 201 213 215 210 222 225 230 226 211 211 215 206 198 197 198 212 210 192 191
163 150 81 112 249 282 290 283 294 326 330 344 352 347 339 340 342 338 340 342 335 302 277 239 203 212 217 219 226 236 218 221 223 202 218 230 236 234 219 216 216 213 203 197 198 216 205 187 191
45 51 118 161 201 219 278 277 271 286 310 326 325 326 329 329 332 333 334 332 328 329 337 327 317 352 277 249 251 238 226 234 252 225 224 228 225 226 226 222 216 217 209 201 202 212 194 186 184
173 186 150 175 258 234 251 275 306 308 326 332 327 326 330 333 332 330 340 354 347 336 339 349 1 359 330 297 271 235 214 200 249 269 263 254 231 228 230 225 219 220 213 202 205 210 198 192 189
Height
1507 1508 1509 1511 1515 1521 1518 1510 1503 1501 1499 1497 1497 1496 1497 1499 1502 1508 1503 1501 1503 1504 1507 1509 1511 1513 1514 1515 1516 1518 1519 1520 1521 1522 1523 1525 1526 1526 1527 1528 1529 1530 1530 1531 1531 1531 1532 1532 1533
1506 1508 1510 1510 1516 1522 1514 1505 1502 1498 1496 1496 1496 1496 1496 1497 1498 1500 1500 1501 1502 1504 1506 1508 1510 1512 1513 1515 1516 1517 1518 1520 1521 1522 1523 1524 1525 1526 1527 1528 1529 1530 1530 1531 1531 1532 1532 1532 1533
1505 1507 1508 1509 1514 1513 1507 1500 1498 1497 1496 1496 1496 1496 1497 1497 1498 1499 1499 1500 1502 1503 1505 1507 1509 1511 1512 1514 1516 1517 1518 1519 1520 1522 1523 1524 1525 1526 1527 1527 1528 1529 1530 1531 1531 1532 1532 1532 1533
1505 1506 1507 1510 1508 1502 1499 1497 1496 1496 1495 1496 1496 1497 1497 1498 1498 1498 1498 1500 1501 1502 1504 1506 1508 1510 1512 1513 1515 1516 1517 1519 1520 1521 1522 1523 1524 1525 1526 1527 1528 1529 1530 1530 1531 1532 1532 1532 1533
1503 1504 1508 1509 1504 1499 1497 1496 1496 1496 1496 1496 1496 1496 1496 1498 1497 1497 1498 1499 1500 1501 1503 1505 1507 1509 1511 1512 1514 1515 1517 1518 1519 1520 1521 1523 1524 1524 1525 1526 1527 1528 1529 1530 1531 1531 1532 1532 1532
1502 1502 1509 1507 1502 1498 1497 1496 1496 1496 1496 1495 1495 1496 1496 1496 1495 1496 1497 1499 1500 1501 1502 1504 1506 1508 1509 1511 1512 1514 1515 1517 1518 1519 1520 1521 1523 1523 1524 1525 1526 1527 1528 1529 1530 1530 1531 1531 1532
1502 1503 1505 1503 1502 1499 1497 1496 1496 1496 1495 1495 1494 1495 1494 1495 1495 1496 1497 1498 1499 1500 1501 1503 1505 1506 1508 1509 1511 1512 1514 1515 1517 1518 1519 1520 1521 1522 1523 1524 1525 1526 1527 1528 1529 1530 1530 1530 1531
1500 1503 1503 1503 1501 1498 1496 1496 1495 1495 1494 1495 1494 1493 1493 1494 1494 1495 1496 1497 1498 1499 1501 1502 1503 1504 1506 1508 1509 1510 1512 1513 1515 1516 1517 1519 1520 1521 1522 1523 1524 1525 1526 1527 1528 1529 1529 1529 1530
1500 1505 1503 1500 1499 1497 1495 1495 1494 1494 1493 1493 1492 1492 1491 1492 1492 1493 1494 1496 1497 1498 1499 1500 1501 1503 1504 1506 1507 1509 1510 1511 1513 1514 1515 1517 1518 1519 1520 1522 1523 1524 1524 1525 1526 1527 1528 1528 1529
1499 1503 1499 1497 1496 1496 1494 1494 1493 1492 1491 1490 1490 1490 1490 1490 1490 1490 1491 1492 1494 1495 1497 1498 1500 1501 1502 1503 1505 1506 1507 1508 1509 1511 1512 1514 1516 1517 1518 1520 1521 1522 1523 1524 1524 1525 1526 1527 1528
1498 1500 1497 1495 1495 1494 1493 1492 1492 1491 1490 1489 1488 1487 1487 1487 1488 1489 1489 1490 1492 1494 1495 1496 1497 1498 1500 1500 1502 1503 1503 1504 1506 1508 1510 1512 1513 1515 1516 1517 1519 1520 1521 1522 1523 1524 1525 1525 1526
1498 1497 1495 1494 1493 1493 1492 1491 1490 1489 1487 1487 1487 1486 1486 1485 1486 1487 1487 1488 1490 1491 1492 1493 1495 1496 1497 1498 1499 1500 1501 1501 1503 1505 1508 1509 1510 1512 1513 1515 1516 1518 1519 1520 1521 1522 1523 1524 1524
1497 1496 1494 1493 1492 1492 1490 1489 1488 1486 1485 1484 1484 1483 1483 1483 1483 1484 1485 1486 1487 1488 1489 1490 1492 1493 1495 1496 1497 1498 1499 1499 1501 1503 1505 1507 1507 1509 1511 1512 1514 1515 1516 1517 1518 1520 1521 1522 1522
1496 1495 1494 1492 1491 1490 1489 1487 1486 1482 1482 1481 1481 1480 1480 1481 1481 1482 1482 1483 1484 1485 1486 1488 1490 1491 1492 1493 1494 1495 1495 1496 1498 1500 1502 1504 1505 1506 1507 1509 1511 1512 1514 1515 1516 1518 1519 1520 1520
1495 1495 1493 1491 1490 1489 1488 1486 1483 1480 1480 1479 1478 1478 1478 1478 1479 1479 1479 1480 1482 1483 1484 1485 1487 1488 1489 1491 1491 1492 1493 1494 1496 1497 1499 1501 1503 1504 1506 1506 1508 1510 1511 1512 1514 1515 1516 1517 1518
1496 1498 1498 1492 1490 1489 1492 1487 1480 1479 1478 1477 1476 1475 1475 1475 1476 1476 1477 1478 1479 1481 1482 1484 1485 1485 1486 1488 1489 1490 1491 1492 1493 1494 1496 1498 1500 1502 1503 1503 1505 1507 1508 1510 1511 1512 1513 1515 1516
1502 1504 1500 1494 1489 1489 1490 1485 1479 1477 1476 1475 1474 1473 1473 1473 1473 1474 1475 1476 1477 1478 1479 1480 1482 1482 1484 1485 1486 1488 1488 1489 1490 1491 1493 1495 1497 1499 1500 1501 1502 1504 1505 1507 1509 1510 1511 1512 1513
1504 1503 1499 1495 1490 1489 1488 1483 1478 1476 1475 1473 1472 1471 1471 1470 1470 1472 1472 1473 1474 1475 1476 1477 1479 1480 1481 1482 1483 1484 1485 1486 1488 1489 1491 1492 1494 1496 1498 1499 1499 1501 1502 1504 1505 1507 1508 1509 1510
1500 1500 1499 1493 1489 1489 1485 1481 1476 1474 1473 1471 1469 1468 1468 1468 1468 1469 1470 1471 1471 1473 1474 1475 1476 1476 1478 1479 1480 1479 1481 1483 1485 1486 1488 1489 1491 1493 1494 1496 1497 1498 1499 1501 1502 1503 1505 1506 1507
1498 1499 1497 1492 1488 1487 1484 1480 1474 1472 1471 1469 1468 1466 1466 1466 1465 1466 1467 1467 1468 1470 1471 1472 1473 1474 1475 1476 1477 1478 1479 1480 1482 1483 1484 1486 1488 1489 1491 1492 1493 1494 1496 1497 1498 1500 1501 1503 1504
1496 1497 1495 1493 1489 1486 1485 1480 1473 1470 1469 1467 1466 1464 1464 1463 1463 1463 1464 1465 1466 1467 1469 1470 1470 1471 1472 1473 1474 1475 1476 1477 1478 1480 1481 1482 1484 1486 1487 1489 1490 1491 1493 1494 1495 1496 1498 1499 1501
1496 1492 1492 1491 1493 1493 1489 1489 1474 1471 1468 1465 1464 1462 1461 1461 1462 1462 1463 1463 1464 1465 1467 1467 1468 1469 1470 1471 1471 1471 1472 1473 1474 1475 1477 1479 1480 1482 1483 1485 1487 1488 1489 1491 1492 1493 1494 1496 1497
1494 1491 1491 1491 1493 1496 1490 1492 1479 1472 1470 1466 1464 1462 1461 1460 1460 1460 1461 1462 1463 1464 1464 1465 1466 1466 1467 1468 1469 1469 1470 1471 1471 1473 1474 1475 1476 1478 1480 1482 1483 1485 1486 1487 1488 1489 1490 1492 1493
1493 1493 1492 1494 1498 1499 1489 1491 1483 1477 1472 1467 1464 1462 1460 1459 1459 1459 1460 1461 1461 1462 1462 1463 1463 1464 1464 1465 1466 1467 1467 1468 1468 1469 1471 1472 1473 1475 1477 1478 1480 1481 1482 1483 1484 1486 1487 1488 1489
1496 1500 1503 1503 1507 1499 1487 1488 1483 1475 1471 1467 1464 1462 1460 1459 1459 1458 1458 1459 1459 1459 1460 1460 1461 1461 1461 1462 1463 1464 1464 1465 1465 1466 1467 1468 1469 1471 1472 1474 1476 1477 1478 1479 1480 1482 1483 1484 1486
1499 1501 1506 1507 1505 1496 1488 1487 1480 1474 1470 1466 1464 1462 1460 1459 1458 1458 1458 1458 1457 1458 1458 1458 1458 1459 1459 1460 1460 1461 1462 1462 1463 1464 1464 1465 1466 1468 1469 1471 1472 1473 1474 1475 1477 1478 1480 1481 1482
1500 1502 1502 1506 1506 1503 1492 1486 1477 1472 1469 1466 1464 1462 1461 1460 1459 1458 1457 1456 1456 1456 1456 1456 1456 1456 1457 1457 1458 1458 1459 1460 1460 1461 1462 1463 1463 1465 1466 1467 1468 1469 1470 1472 1473 1474 1476 1477 1479
1500 1501 1506 1508 1506 1500 1491 1488 1483 1477 1473 1470 1466 1463 1461 1460 1458 1457 1456 1455 1455 1455 1455 1454 1454 1454 1454 1455 1455 1455 1456 1457 1458 1458 1459 1460 1460 1462 1463 1464 1465 1466 1467 1468 1470 1471 1472 1474 1475
1502 1503 1504 1508 1507 1504 1497 1489 1478 1477 1474 1472 1468 1465 1462 1460 1458 1457 1455 1455 1454 1453 1452 1452 1452 1452 1452 1453 1453 1453 1454 1454 1455 1455 1456 1456 1457 1458 1459 1460 1461 1462 1464 1465 1466 1467 1469 1470 1471
1501 1502 1505 1508 1508 1507 1502 1492 1476 1475 1473 1471 1469 1466 1463 1460 1458 1456 1455 1454 1453 1452 1451 1450 1450 1450 1450 1450 1451 1451 1452 1452 1453 1453 1454 1454 1454 1455 1456 1457 1458 1459 1460 1461 1462 1463 1465 1466 1467